FW2567 Weather Reports


time (UTC)temp
F
wind
direction
speed
knots
gust
knots
rain 1hr
in
rain 24hr
in
rain mn
in
humidity
%
barometer
mb
20260905061531 52 360 0.9 2.6 0.02 0.05 0.04 94 1017.9
20260905060031 52 109 0.0 2.6 0.01 0.04 0.03 93 1018.1
20260905054531 52 153 0.9 3.5 0.00 0.03 0.03 93 1018.1
20260905053031 51 157 1.7 3.5 0.00 0.03 0.03 93 1018.0
20260905051530 51 157 0.0 0.0 0.00 0.03 0.03 92 1018.0
20260905043030 51 157 0.0 0.9 0.00 0.03 0.03 91 1017.7
20260905041530 52 157 0.0 0.9 0.00 0.03 0.03 91 1017.6
20260905040107 51 157 0.0 1.7 0.00 0.03 0.03 90 1017.5
20260905033030 51 180 0.9 3.5 0.00 0.03 0.03 87 1017.2
20260905031530 55 148 0.0 0.0 0.00 0.03 0.03 84 1017.1
20260905024530 56 67 0.0 2.6 0.00 0.03 0.03 83 1017.1
20260905023107 57 67 0.9 1.7 0.00 0.03 0.03 81 1017.2
20260905021532 59 48 1.7 4.3 0.00 0.03 0.03 79 1017.0
20260905020032 59 24 0.9 4.3 0.00 0.03 0.03 77 1016.8
20260905014603 60 22 0.0 1.7 0.00 0.03 0.03 77 1016.6
20260905013028 60 22 0.0 1.7 0.00 0.03 0.03 77 1016.4
20260905010030 61 265 0.0 2.6 0.00 0.03 0.03 77 1016.5
20260905004531 61 247 0.0 0.0 0.00 0.03 0.03 77 1016.4
20260905003032 61 248 0.0 1.7 0.00 0.03 0.03 76 1016.2
20260905001602 61 282 0.9 2.6 0.00 0.03 0.03 76 1016.2
20260905000031 61 258 1.7 4.3 0.00 0.03 0.03 76 1016.2
20260904233106 61 266 1.7 4.3 0.00 0.03 0.03 74 1016.1
20260904231531 61 315 0.9 2.6 0.00 0.05 0.03 74 1016.1
20260904230030 62 10 1.7 4.3 0.00 0.06 0.03 74 1016.1
20260904224531 61 142 0.0 3.5 0.00 0.06 0.03 75 1016.1
20260904223041 61 127 2.6 5.2 0.00 0.06 0.03 77 1016.0
20260904221531 61 153 0.9 4.3 0.00 0.06 0.03 79 1016.0
20260904214534 61 114 0.9 2.6 0.00 0.06 0.03 79 1015.9
20260904213105 62 284 0.0 1.7 0.00 0.06 0.03 79 1015.8
20260904211533 61 215 0.0 2.6 0.00 0.06 0.03 81 1015.8
20260904210029 60 67 0.0 0.0 0.00 0.06 0.03 82 1015.6
20260904204533 59 70 0.0 2.6 0.00 0.06 0.03 82 1015.6
20260904203029 59 106 1.7 3.5 0.00 0.06 0.03 82 1015.6
20260904201529 60 108 0.9 3.5 0.00 0.06 0.03 80 1015.8
20260904200029 61 29 1.7 4.3 0.00 0.06 0.03 80 1015.7
20260904194532 60 47 1.7 5.2 0.00 0.06 0.03 83 1015.9
20260904193028 58 10 0.0 2.6 0.00 0.06 0.03 85 1016.0
20260904191605 57 356 0.9 3.5 0.00 0.06 0.03 86 1016.0
20260904190030 57 346 0.9 3.5 0.00 0.06 0.03 86 1016.1
20260904184606 57 99 0.0 2.6 0.00 0.06 0.03 88 1016.1
20260904181605 56 326 0.0 2.6 0.00 0.06 0.03 89 1015.9
20260904180028 56 236 0.0 2.6 0.00 0.06 0.03 92 1015.9
20260904173030 52 60 0.0 2.6 0.00 0.06 0.03 94 1015.8
20260904171606 52 67 0.9 2.6 0.00 0.06 0.03 94 1015.8
20260904164528 53 20 1.7 2.6 0.00 0.06 0.03 94 1015.8
20260904163033 54 27 0.9 3.5 0.00 0.06 0.03 95 1015.7
20260904161528 51 11 0.9 4.3 0.00 0.06 0.03 96 1015.6
20260904154530 49 238 0.0 2.6 0.00 0.06 0.03 96 1015.4
20260904153030 49 247 0.0 2.6 0.00 0.06 0.03 96 1015.3
20260904151533 49 255 0.9 2.6 0.00 0.06 0.03 96 1015.1
20260904150030 49 270 0.0 0.9 0.00 0.06 0.03 96 1014.9
20260904144531 48 270 0.0 0.0 0.00 0.06 0.03 96 1014.9
20260904141531 47 270 0.0 0.0 0.00 0.06 0.03 96 1014.6
20260904140032 47 270 0.0 0.0 0.01 0.06 0.03 96 1014.5
20260904134605 47 270 0.0 0.0 0.01 0.06 0.03 96 1014.3
20260904133030 47 270 0.0 0.0 0.01 0.06 0.03 96 1014.2
20260904131527 47 270 0.0 0.0 0.02 0.06 0.02 96 1014.1
20260904130031 48 270 0.0 0.0 0.01 0.05 0.02 96 1014.0
20260904123028 48 270 0.0 0.0 0.01 0.05 0.01 96 1013.9
20260904121528 48 270 0.0 0.0 0.00 0.04 0.01 96 1013.9
20260904120032 47 270 0.0 0.0 0.01 0.04 0.01 96 1013.8
20260904114531 48 270 0.0 0.0 0.01 0.04 0.01 96 1013.7
20260904113106 48 270 0.0 0.0 0.01 0.04 0.01 96 1013.5
20260904111530 48 270 0.0 0.0 0.01 0.04 0.00 96 1013.4
20260904110029 48 85 0.9 2.6 0.00 0.03 0.00 96 1013.2
20260904104527 47 110 0.0 1.7 0.00 0.03 0.00 96 1013.2
20260904100107 47 220 0.0 0.0 0.00 0.03 0.00 96 1012.8
20260904093029 47 156 0.0 2.6 0.00 0.03 0.00 96 1012.7
20260904091530 47 135 0.0 2.6 0.00 0.03 0.00 95 1012.7
20260904090029 47 135 0.0 0.0 0.00 0.04 0.00 95 1012.7
20260904084532 47 135 0.0 1.7 0.00 0.04 0.00 95 1012.7
20260904083146 47 146 0.0 1.7 0.00 0.04 0.00 95 1012.5
20260904080033 47 157 0.9 2.6 0.00 0.04 0.00 95 1012.6
20260904074530 47 154 0.0 2.6 0.00 0.04 0.00 95 1012.6
20260904073031 47 157 0.0 0.0 0.00 0.04 0.00 95 1012.6
20260904071530 47 157 0.0 1.7 0.00 0.04 0.00 95 1012.6
20260904064644 47 177 0.0 1.7 0.00 0.04 0.04 94 1012.5
20260904063031 47 202 0.0 1.7 0.00 0.04 0.04 94 1012.5